Year,Month,Day,Hour,Minute,Value (Times are PST for barometer in hPa)
2010,01,21,00,01,980.25
2010,01,21,00,02,980.25
2010,01,21,00,03,980.25
2010,01,21,00,05,980.25
2010,01,21,00,06,980.25
2010,01,21,00,07,980.25
2010,01,21,00,08,980.25
2010,01,21,00,09,980.25
2010,01,21,00,11,980.25
2010,01,21,00,12,980.25
2010,01,21,00,13,980.25
2010,01,21,00,14,980.25
2010,01,21,00,16,980.25
2010,01,21,00,17,980.25
2010,01,21,00,18,980.25
2010,01,21,00,19,980.25
2010,01,21,00,21,979.91
2010,01,21,00,22,980.25
2010,01,21,00,23,980.25
2010,01,21,00,24,979.91
2010,01,21,00,26,980.25
2010,01,21,00,27,979.91
2010,01,21,00,28,980.25
2010,01,21,00,29,979.91
2010,01,21,00,32,979.91
2010,01,21,00,33,979.91
2010,01,21,00,34,979.91
2010,01,21,00,35,979.91
2010,01,21,00,36,979.91
2010,01,21,00,38,979.91
2010,01,21,00,39,979.91
2010,01,21,00,40,979.91
2010,01,21,00,41,980.25
2010,01,21,00,42,979.91
2010,01,21,00,43,979.91
2010,01,21,00,45,979.91
2010,01,21,00,46,980.25
2010,01,21,00,47,980.25
2010,01,21,00,48,979.91
2010,01,21,00,50,980.25
2010,01,21,00,51,980.25
2010,01,21,00,52,980.25
2010,01,21,00,53,980.25
2010,01,21,00,54,980.25
2010,01,21,00,56,980.25
2010,01,21,00,57,980.25
2010,01,21,00,58,980.25
2010,01,21,00,59,980.25
2010,01,21,01,02,980.25
2010,01,21,01,03,980.25
2010,01,21,01,04,980.25
2010,01,21,01,05,980.25
2010,01,21,01,06,980.25
2010,01,21,01,08,980.25
2010,01,21,01,10,980.25
2010,01,21,01,11,980.25
2010,01,21,01,12,979.91
2010,01,21,01,14,979.91
2010,01,21,01,15,979.91
2010,01,21,01,16,979.91
2010,01,21,01,17,980.25
2010,01,21,01,19,980.25
2010,01,21,01,20,980.25
2010,01,21,01,21,979.91
2010,01,21,01,22,979.91
2010,01,21,01,24,980.25
2010,01,21,01,25,980.25
2010,01,21,01,26,980.25
2010,01,21,01,27,980.25
2010,01,21,01,29,980.25
2010,01,21,01,31,980.25
2010,01,21,01,32,980.25
2010,01,21,01,33,980.25
2010,01,21,01,35,979.91
2010,01,21,01,36,980.25
2010,01,21,01,37,980.25
2010,01,21,01,38,980.25
2010,01,21,01,39,980.25
2010,01,21,01,42,980.25
2010,01,21,01,43,980.25
2010,01,21,01,44,980.25
2010,01,21,01,45,980.25
2010,01,21,01,47,980.25
2010,01,21,01,48,980.25
2010,01,21,01,50,980.25
2010,01,21,01,51,980.25
2010,01,21,01,52,980.25
2010,01,21,01,54,980.25
2010,01,21,01,55,980.25
2010,01,21,01,56,980.25
2010,01,21,01,57,980.25
2010,01,21,01,59,980.25
2010,01,21,02,00,980.25
2010,01,21,02,01,980.25
2010,01,21,02,02,980.25
2010,01,21,02,04,980.25
2010,01,21,02,05,980.25
2010,01,21,02,06,980.25
2010,01,21,02,07,980.25
2010,01,21,02,08,980.25
2010,01,21,02,10,980.25
2010,01,21,02,11,980.25
2010,01,21,02,12,980.25
2010,01,21,02,13,979.91
2010,01,21,02,14,979.91
2010,01,21,02,16,979.91
2010,01,21,02,17,980.25
2010,01,21,02,18,980.25
2010,01,21,02,19,980.25
2010,01,21,02,22,980.25
2010,01,21,02,23,979.91
2010,01,21,02,24,979.91
2010,01,21,02,25,979.91
2010,01,21,02,27,979.91
2010,01,21,02,28,979.91
2010,01,21,02,30,980.25
2010,01,21,02,31,980.25
2010,01,21,02,32,980.25
2010,01,21,02,33,980.25
2010,01,21,02,35,980.25
2010,01,21,02,36,980.25
2010,01,21,02,37,980.25
2010,01,21,02,38,980.25
2010,01,21,02,39,980.25
2010,01,21,02,42,980.25
2010,01,21,02,43,980.25
2010,01,21,02,44,980.25
2010,01,21,02,45,980.25
2010,01,21,02,47,980.25
2010,01,21,02,48,980.25
2010,01,21,02,50,980.25
2010,01,21,02,52,980.25
2010,01,21,02,53,979.91
2010,01,21,02,54,979.91
2010,01,21,02,55,979.91
2010,01,21,02,56,979.91
2010,01,21,02,58,979.91
2010,01,21,02,59,979.91
2010,01,21,03,00,979.91
2010,01,21,03,02,979.91
2010,01,21,03,04,979.91
2010,01,21,03,05,979.91
2010,01,21,03,06,979.91
2010,01,21,03,07,979.91
2010,01,21,03,09,979.91
2010,01,21,03,10,979.91
2010,01,21,03,11,979.91
2010,01,21,03,12,979.91
2010,01,21,03,14,979.91
2010,01,21,03,15,979.91
2010,01,21,03,16,979.91
2010,01,21,03,17,979.91
2010,01,21,03,18,979.91
2010,01,21,03,19,979.91
2010,01,21,03,21,979.91
2010,01,21,03,22,979.91
2010,01,21,03,23,979.91
2010,01,21,03,24,979.91
2010,01,21,03,26,979.91
2010,01,21,03,27,979.91
2010,01,21,03,28,979.91
2010,01,21,03,29,979.91
2010,01,21,03,32,979.91
2010,01,21,03,33,979.91
2010,01,21,03,34,979.91
2010,01,21,03,35,979.91
2010,01,21,03,37,979.91
2010,01,21,03,38,979.91
2010,01,21,03,40,979.91
2010,01,21,03,41,979.91
2010,01,21,03,43,979.91
2010,01,21,03,44,979.91
2010,01,21,03,45,979.57
2010,01,21,03,46,979.57
2010,01,21,03,47,979.91
2010,01,21,03,49,979.91
2010,01,21,03,50,979.91
2010,01,21,03,51,979.91
2010,01,21,03,52,979.91
2010,01,21,03,54,979.91
2010,01,21,03,55,979.91
2010,01,21,03,56,979.91
2010,01,21,03,57,979.91
2010,01,21,03,59,979.91
2010,01,21,04,00,979.91
2010,01,21,04,02,979.91
2010,01,21,04,03,979.91
2010,01,21,04,05,979.91
2010,01,21,04,06,979.91
2010,01,21,04,07,979.91
2010,01,21,04,08,979.91
2010,01,21,04,10,980.25
2010,01,21,04,11,980.25
2010,01,21,04,12,979.91
2010,01,21,04,13,980.25
2010,01,21,04,14,979.91
2010,01,21,04,16,979.91
2010,01,21,04,17,980.25
2010,01,21,04,18,979.91
2010,01,21,04,19,979.91
2010,01,21,04,21,979.91
2010,01,21,04,22,979.91
2010,01,21,04,23,979.91
2010,01,21,04,24,979.91
2010,01,21,04,25,979.91
2010,01,21,04,27,980.25
2010,01,21,04,28,979.91
2010,01,21,04,30,979.91
2010,01,21,04,31,979.91
2010,01,21,04,32,979.91
2010,01,21,04,34,980.25
2010,01,21,04,35,980.25
2010,01,21,04,36,979.91
2010,01,21,04,37,979.91
2010,01,21,04,38,980.25
2010,01,21,04,40,979.91
2010,01,21,04,41,980.25
2010,01,21,04,42,979.91
2010,01,21,04,43,979.91
2010,01,21,04,44,979.91
2010,01,21,04,46,979.91
2010,01,21,04,47,979.91
2010,01,21,04,48,979.91
2010,01,21,04,50,979.91
2010,01,21,04,52,979.91
2010,01,21,04,53,979.91
2010,01,21,04,54,979.91
2010,01,21,04,55,979.91
2010,01,21,04,57,979.91
2010,01,21,04,58,979.91
2010,01,21,05,00,979.91
2010,01,21,05,01,979.91
2010,01,21,05,03,979.91
2010,01,21,05,04,979.91
2010,01,21,05,05,979.91
2010,01,21,05,06,979.91
2010,01,21,05,07,979.91
2010,01,21,05,09,979.91
2010,01,21,05,10,979.91
2010,01,21,05,11,979.91
2010,01,21,05,12,979.91
2010,01,21,05,13,979.91
2010,01,21,05,15,979.91
2010,01,21,05,16,979.91
2010,01,21,05,17,979.91
2010,01,21,05,18,979.91
2010,01,21,05,20,979.91
2010,01,21,05,21,979.91
2010,01,21,05,22,979.91
2010,01,21,05,23,979.91
2010,01,21,05,25,979.91
2010,01,21,05,26,979.91
2010,01,21,05,27,979.91
2010,01,21,05,28,979.91
2010,01,21,05,30,979.91
2010,01,21,05,31,979.91
2010,01,21,05,33,979.91
2010,01,21,05,34,979.91
2010,01,21,05,35,979.91
2010,01,21,05,36,979.91
2010,01,21,05,38,980.25
2010,01,21,05,40,979.91
2010,01,21,05,41,980.25
2010,01,21,05,43,980.25
2010,01,21,05,44,980.25
2010,01,21,05,45,980.25
2010,01,21,05,46,980.25
2010,01,21,05,47,980.25
2010,01,21,05,49,980.25
2010,01,21,05,50,980.25
2010,01,21,05,51,980.25
2010,01,21,05,52,980.25
2010,01,21,05,53,980.25
2010,01,21,05,55,980.25
2010,01,21,05,56,980.25
2010,01,21,05,57,980.25
2010,01,21,05,58,980.25
2010,01,21,06,00,980.25
2010,01,21,06,02,980.25
2010,01,21,06,03,980.25
2010,01,21,06,04,980.25
2010,01,21,06,06,980.25
2010,01,21,06,07,980.25
2010,01,21,06,08,980.25
2010,01,21,06,10,980.25
2010,01,21,06,11,980.25
2010,01,21,06,13,980.25
2010,01,21,06,14,980.25
2010,01,21,06,15,980.25
2010,01,21,06,16,980.25
2010,01,21,06,17,980.59
2010,01,21,06,19,980.59
2010,01,21,06,20,980.59
2010,01,21,06,21,980.59
2010,01,21,06,22,980.59
2010,01,21,06,24,980.59
2010,01,21,06,25,980.59
2010,01,21,06,26,980.59
2010,01,21,06,27,980.59
2010,01,21,06,28,980.59
2010,01,21,06,30,980.59
2010,01,21,06,31,980.59
2010,01,21,06,32,980.59
2010,01,21,06,33,980.59
2010,01,21,06,34,980.59
2010,01,21,06,36,980.59
2010,01,21,06,37,980.59
2010,01,21,06,38,980.59
2010,01,21,06,39,980.59
2010,01,21,06,41,980.59
2010,01,21,06,42,980.59
2010,01,21,06,43,980.25
2010,01,21,06,44,980.25
2010,01,21,06,45,980.59
2010,01,21,06,47,980.25
2010,01,21,06,48,980.59
2010,01,21,06,49,980.59
2010,01,21,06,52,980.59
2010,01,21,06,53,980.25
2010,01,21,06,54,980.59
2010,01,21,06,55,980.59
2010,01,21,06,57,980.59
2010,01,21,06,58,980.59
2010,01,21,07,00,980.59
2010,01,21,07,01,980.59
2010,01,21,07,03,980.59
2010,01,21,07,04,980.59
2010,01,21,07,05,980.59
2010,01,21,07,06,980.59
2010,01,21,07,07,980.59
2010,01,21,07,09,980.92
2010,01,21,07,10,980.59
2010,01,21,07,11,980.59
2010,01,21,07,12,980.59
2010,01,21,07,13,980.59
2010,01,21,07,15,980.59
2010,01,21,07,16,980.59
2010,01,21,07,17,980.59
2010,01,21,07,18,980.92
2010,01,21,07,19,980.92
2010,01,21,07,21,980.59
2010,01,21,07,22,980.59
2010,01,21,07,23,980.59
2010,01,21,07,24,980.92
2010,01,21,07,26,980.92
2010,01,21,07,27,980.59
2010,01,21,07,28,980.92
2010,01,21,07,29,980.92
2010,01,21,07,31,980.92
2010,01,21,07,33,980.92
2010,01,21,07,34,980.92
2010,01,21,07,35,980.92
2010,01,21,07,36,980.92
2010,01,21,07,38,980.59
2010,01,21,07,39,980.59
2010,01,21,07,40,980.92
2010,01,21,07,41,980.92
2010,01,21,07,42,980.92
2010,01,21,07,44,980.59
2010,01,21,07,45,980.92
2010,01,21,07,46,980.92
2010,01,21,07,47,980.92
2010,01,21,07,48,980.92
2010,01,21,07,50,980.92
2010,01,21,07,51,980.92
2010,01,21,07,52,980.92
2010,01,21,07,53,980.92
2010,01,21,07,54,980.92
2010,01,21,07,56,980.92
2010,01,21,07,57,980.92
2010,01,21,07,58,980.92
2010,01,21,08,00,980.92
2010,01,21,08,02,980.92
2010,01,21,08,03,980.92
2010,01,21,08,04,980.92
2010,01,21,08,05,980.92
2010,01,21,08,06,980.92
2010,01,21,08,08,980.92
2010,01,21,08,09,980.92
2010,01,21,08,10,980.92
2010,01,21,08,11,980.92
2010,01,21,08,12,980.92
2010,01,21,08,14,980.92
2010,01,21,08,15,980.92
2010,01,21,08,16,980.92
2010,01,21,08,17,980.92
2010,01,21,08,18,980.92
2010,01,21,08,20,980.92
2010,01,21,08,21,981.26
2010,01,21,08,22,981.26
2010,01,21,08,23,981.26
2010,01,21,08,24,981.26
2010,01,21,08,26,981.26
2010,01,21,08,27,980.92
2010,01,21,08,28,980.92
2010,01,21,08,30,981.26
2010,01,21,08,32,981.26
2010,01,21,08,33,981.26
2010,01,21,08,34,981.26
2010,01,21,08,35,980.92
2010,01,21,08,36,981.26
2010,01,21,08,37,981.26
2010,01,21,08,39,981.26
2010,01,21,08,40,981.26
2010,01,21,08,41,981.26
2010,01,21,08,42,981.26
2010,01,21,08,44,981.26
2010,01,21,08,45,981.26
2010,01,21,08,46,981.26
2010,01,21,08,47,981.26
2010,01,21,08,48,981.26
2010,01,21,08,50,981.26
2010,01,21,08,51,981.26
2010,01,21,08,52,981.26
2010,01,21,08,53,981.26
2010,01,21,08,54,981.26
2010,01,21,08,56,980.92
2010,01,21,08,57,981.26
2010,01,21,08,58,981.26
2010,01,21,09,00,981.26
2010,01,21,09,01,981.26
2010,01,21,09,02,981.26
2010,01,21,09,03,981.26
2010,01,21,09,04,981.26
2010,01,21,09,06,981.60
2010,01,21,09,07,981.60
2010,01,21,09,08,981.26
2010,01,21,09,10,981.60
2010,01,21,09,11,981.60
2010,01,21,09,13,981.60
2010,01,21,09,14,981.60
2010,01,21,09,15,981.60
2010,01,21,09,16,981.60
2010,01,21,09,18,981.60
2010,01,21,09,20,981.60
2010,01,21,09,21,981.60
2010,01,21,09,23,981.60
2010,01,21,09,24,981.60
2010,01,21,09,25,981.60
2010,01,21,09,26,981.94
2010,01,21,09,28,981.94
2010,01,21,09,29,981.94
2010,01,21,09,30,981.94
2010,01,21,09,31,981.94
2010,01,21,09,32,981.94
2010,01,21,09,33,981.60
2010,01,21,09,35,981.94
2010,01,21,09,36,981.94
2010,01,21,09,37,981.94
2010,01,21,09,38,981.94
2010,01,21,09,40,981.94
2010,01,21,09,41,981.60
2010,01,21,09,42,981.94
2010,01,21,09,43,981.60
2010,01,21,09,44,981.94
2010,01,21,09,46,981.60
2010,01,21,09,47,981.60
2010,01,21,09,48,981.94
2010,01,21,09,50,981.94
2010,01,21,09,52,981.94
2010,01,21,09,53,981.94
2010,01,21,09,54,981.94
2010,01,21,09,55,981.94
2010,01,21,09,57,981.94
2010,01,21,09,58,981.60
2010,01,21,10,00,981.94
2010,01,21,10,02,981.94
2010,01,21,10,03,981.94
2010,01,21,10,04,981.94
2010,01,21,10,05,981.94
2010,01,21,10,06,981.94
2010,01,21,10,08,981.94
2010,01,21,10,10,981.94
2010,01,21,10,11,981.94
2010,01,21,10,13,982.28
2010,01,21,10,14,981.94
2010,01,21,10,15,982.28
2010,01,21,10,16,981.94
2010,01,21,10,18,981.94
2010,01,21,10,19,981.94
2010,01,21,10,20,982.28
2010,01,21,10,21,982.28
2010,01,21,10,22,982.28
2010,01,21,10,23,982.28
2010,01,21,10,25,982.28
2010,01,21,10,26,982.28
2010,01,21,10,27,982.28
2010,01,21,10,28,982.28
2010,01,21,10,30,982.28
2010,01,21,10,32,982.28
2010,01,21,10,33,982.28
2010,01,21,10,34,982.28
2010,01,21,10,35,982.28
2010,01,21,10,37,982.28
2010,01,21,10,38,982.28
2010,01,21,10,40,982.28
2010,01,21,10,41,981.94
2010,01,21,10,43,981.94
2010,01,21,10,44,981.94
2010,01,21,10,45,981.94
2010,01,21,10,46,981.94
2010,01,21,10,47,981.94
2010,01,21,10,49,981.94
2010,01,21,10,50,981.94
2010,01,21,10,51,981.94
2010,01,21,10,52,981.94
2010,01,21,10,54,981.94
2010,01,21,10,55,981.94
2010,01,21,10,56,981.94
2010,01,21,10,57,981.94
2010,01,21,10,58,981.94
2010,01,21,11,00,981.94
2010,01,21,11,01,981.94
2010,01,21,11,02,981.94
2010,01,21,11,03,981.94
2010,01,21,11,05,981.94
2010,01,21,11,06,981.94
2010,01,21,11,07,981.94
2010,01,21,11,08,981.94
2010,01,21,11,10,981.94
2010,01,21,11,11,981.94
2010,01,21,11,12,981.94
2010,01,21,11,13,981.94
2010,01,21,11,14,981.94
2010,01,21,11,16,981.94
2010,01,21,11,17,981.94
2010,01,21,11,18,981.94
2010,01,21,11,20,981.60
2010,01,21,11,22,981.94
2010,01,21,11,23,981.94
2010,01,21,11,24,981.94
2010,01,21,11,25,981.94
2010,01,21,11,27,981.94
2010,01,21,11,28,981.94
2010,01,21,11,31,981.94
2010,01,21,11,33,981.94
2010,01,21,11,35,981.94
2010,01,21,11,36,981.94
2010,01,21,11,37,981.94
2010,01,21,11,38,981.94
2010,01,21,11,40,981.94
2010,01,21,11,41,981.94
2010,01,21,11,42,981.94
2010,01,21,11,43,981.94
2010,01,21,11,45,981.94
2010,01,21,11,46,981.94
2010,01,21,11,47,981.94
2010,01,21,11,48,981.94
2010,01,21,11,50,981.94
2010,01,21,11,51,981.94
2010,01,21,11,52,981.94
2010,01,21,11,53,981.94
2010,01,21,11,54,981.94
2010,01,21,11,56,981.94
2010,01,21,11,57,981.94
2010,01,21,11,58,981.94
2010,01,21,11,59,981.94
2010,01,21,12,02,981.94
2010,01,21,12,03,981.60
2010,01,21,12,05,981.94
2010,01,21,12,06,981.94
2010,01,21,12,07,981.94
2010,01,21,12,08,981.94
2010,01,21,12,10,981.94
2010,01,21,12,11,981.94
2010,01,21,12,12,981.94
2010,01,21,12,13,981.94
2010,01,21,12,14,981.94
2010,01,21,12,16,981.94
2010,01,21,12,17,981.94
2010,01,21,12,18,981.94
2010,01,21,12,20,981.94
2010,01,21,12,22,981.60
2010,01,21,12,23,981.94
2010,01,21,12,24,981.60
2010,01,21,12,25,981.60
2010,01,21,12,27,981.60
2010,01,21,12,28,981.60
2010,01,21,12,30,981.60
2010,01,21,12,33,981.60
2010,01,21,12,34,981.60
2010,01,21,12,35,981.60
2010,01,21,12,36,981.94
2010,01,21,12,37,981.60
2010,01,21,12,39,981.60
2010,01,21,12,40,981.60
2010,01,21,12,41,981.60
2010,01,21,12,42,981.60
2010,01,21,12,43,981.60
2010,01,21,12,45,981.60
2010,01,21,12,46,981.60
2010,01,21,12,47,981.60
2010,01,21,12,48,981.60
2010,01,21,12,50,981.60
2010,01,21,12,51,981.60
2010,01,21,12,52,981.60
2010,01,21,12,53,981.60
2010,01,21,12,54,981.60
2010,01,21,12,56,981.60
2010,01,21,12,57,981.60
2010,01,21,12,58,981.60
2010,01,21,12,59,981.60
2010,01,21,13,02,981.94
2010,01,21,13,03,981.94
2010,01,21,13,04,981.94
2010,01,21,13,05,981.94
2010,01,21,13,07,981.94
2010,01,21,13,08,981.94
2010,01,21,13,10,981.94
2010,01,21,13,12,981.94
2010,01,21,13,13,981.94
2010,01,21,13,14,981.60
2010,01,21,13,15,981.60
2010,01,21,13,16,981.94
2010,01,21,13,18,981.94
2010,01,21,13,20,981.94
2010,01,21,13,21,981.94
2010,01,21,13,23,981.94
2010,01,21,13,24,981.94
2010,01,21,13,25,981.94
2010,01,21,13,26,981.94
2010,01,21,13,27,981.94
2010,01,21,13,28,981.94
2010,01,21,13,30,981.94
2010,01,21,13,31,981.94
2010,01,21,13,32,981.94
2010,01,21,13,33,981.94
2010,01,21,13,34,981.94
2010,01,21,13,36,981.94
2010,01,21,13,37,981.94
2010,01,21,13,38,981.94
2010,01,21,13,39,981.94
2010,01,21,13,42,981.94
2010,01,21,13,43,981.94
2010,01,21,13,44,981.94
2010,01,21,13,45,981.94
2010,01,21,13,47,981.94
2010,01,21,13,48,981.94
2010,01,21,13,50,981.94
2010,01,21,13,51,982.28
2010,01,21,13,52,982.28
2010,01,21,13,54,982.28
2010,01,21,13,55,981.94
2010,01,21,13,56,982.28
2010,01,21,13,57,982.28
2010,01,21,13,59,982.28
2010,01,21,14,00,982.28
2010,01,21,14,02,982.28
2010,01,21,14,04,982.28
2010,01,21,14,05,982.28
2010,01,21,14,06,982.28
2010,01,21,14,07,982.28
2010,01,21,14,08,982.28
2010,01,21,14,09,982.28
2010,01,21,14,11,982.28
2010,01,21,14,12,982.28
2010,01,21,14,13,982.28
2010,01,21,14,14,982.28
2010,01,21,14,16,982.28
2010,01,21,14,17,982.28
2010,01,21,14,18,982.28
2010,01,21,14,20,982.28
2010,01,21,14,22,982.28
2010,01,21,14,23,982.28
2010,01,21,14,24,982.28
2010,01,21,14,25,982.28
2010,01,21,14,26,982.28
2010,01,21,14,28,982.28
2010,01,21,14,30,982.28
2010,01,21,14,32,982.28
2010,01,21,14,34,982.28
2010,01,21,14,35,982.28
2010,01,21,14,36,982.28
2010,01,21,14,37,982.28
2010,01,21,14,38,982.28
2010,01,21,14,40,982.28
2010,01,21,14,41,982.28
2010,01,21,14,42,982.28
2010,01,21,14,43,982.28
2010,01,21,14,44,982.28
2010,01,21,14,46,982.28
2010,01,21,14,47,982.28
2010,01,21,14,48,982.28
2010,01,21,14,50,982.28
2010,01,21,14,51,982.28
2010,01,21,14,53,982.28
2010,01,21,14,54,982.28
2010,01,21,14,55,982.28
2010,01,21,14,56,982.28
2010,01,21,14,57,982.28
2010,01,21,14,58,982.28
2010,01,21,15,00,982.28
2010,01,21,15,01,982.28
2010,01,21,15,02,982.28
2010,01,21,15,03,982.28
2010,01,21,15,04,982.28
2010,01,21,15,05,982.28
2010,01,21,15,07,982.28
2010,01,21,15,08,982.28
2010,01,21,15,10,982.28
2010,01,21,15,11,982.28
2010,01,21,15,13,982.28
2010,01,21,15,14,982.28
2010,01,21,15,15,982.28
2010,01,21,15,16,982.28
2010,01,21,15,17,982.28
2010,01,21,15,19,982.28
2010,01,21,15,20,982.28
2010,01,21,15,21,982.28
2010,01,21,15,22,982.28
2010,01,21,15,23,982.28
2010,01,21,15,25,982.28
2010,01,21,15,26,982.28
2010,01,21,15,27,982.28
2010,01,21,15,28,982.28
2010,01,21,15,29,982.28
2010,01,21,15,32,982.28
2010,01,21,15,33,982.28
2010,01,21,15,34,982.28
2010,01,21,15,35,982.28
2010,01,21,15,36,982.28
2010,01,21,15,38,982.28
2010,01,21,15,40,982.62
2010,01,21,15,43,982.28
2010,01,21,15,44,982.28
2010,01,21,15,45,982.62
2010,01,21,15,47,982.28
2010,01,21,15,49,982.28
2010,01,21,15,50,982.28
2010,01,21,15,51,982.28
2010,01,21,15,52,982.28
2010,01,21,15,53,982.28
2010,01,21,15,55,982.28
2010,01,21,15,56,982.28
2010,01,21,15,57,982.28
2010,01,21,15,58,982.28
2010,01,21,16,00,982.28
2010,01,21,16,02,982.28
2010,01,21,16,03,982.28
2010,01,21,16,04,982.28
2010,01,21,16,05,982.28
2010,01,21,16,07,982.28
2010,01,21,16,08,982.28
2010,01,21,16,10,982.28
2010,01,21,16,11,982.28
2010,01,21,16,13,982.28
2010,01,21,16,14,982.28
2010,01,21,16,15,982.28
2010,01,21,16,16,982.28
2010,01,21,16,18,982.28
2010,01,21,16,19,982.28
2010,01,21,16,20,982.28
2010,01,21,16,21,982.28
2010,01,21,16,22,982.28
2010,01,21,16,24,982.28
2010,01,21,16,25,982.28
2010,01,21,16,26,982.28
2010,01,21,16,29,982.28
2010,01,21,16,30,982.62
2010,01,21,16,32,982.28
2010,01,21,16,33,982.62
2010,01,21,16,34,982.62
2010,01,21,16,35,982.62
2010,01,21,16,37,982.62
2010,01,21,16,38,982.62
2010,01,21,16,40,982.62
2010,01,21,16,42,982.62
2010,01,21,16,43,982.62
2010,01,21,16,44,982.62
2010,01,21,16,45,982.62
2010,01,21,16,47,982.62
2010,01,21,16,48,982.62
2010,01,21,16,50,982.62
2010,01,21,16,51,982.62
2010,01,21,16,53,982.62
2010,01,21,16,54,982.62
2010,01,21,16,55,982.62
2010,01,21,16,56,982.62
2010,01,21,16,58,982.62
2010,01,21,17,00,982.62
2010,01,21,17,01,982.62
2010,01,21,17,02,982.62
2010,01,21,17,04,982.62
2010,01,21,17,05,982.62
2010,01,21,17,06,982.62
2010,01,21,17,07,982.62
2010,01,21,17,08,982.62
2010,01,21,17,10,982.62
2010,01,21,17,11,982.62
2010,01,21,17,12,982.96
2010,01,21,17,13,982.62
2010,01,21,17,14,982.62
2010,01,21,17,16,982.62
2010,01,21,17,17,982.62
2010,01,21,17,18,982.62
2010,01,21,17,20,982.62
2010,01,21,17,21,982.96
2010,01,21,17,22,982.96
2010,01,21,17,23,982.62
2010,01,21,17,24,982.96
2010,01,21,17,26,982.96
2010,01,21,17,27,982.96
2010,01,21,17,28,982.62
2010,01,21,17,30,982.96
2010,01,21,17,32,982.96
2010,01,21,17,33,982.96
2010,01,21,17,34,982.96
2010,01,21,17,35,982.96
2010,01,21,17,36,982.96
2010,01,21,17,37,982.62
2010,01,21,17,38,982.96
2010,01,21,17,39,982.96
2010,01,21,17,42,982.96
2010,01,21,17,43,982.96
2010,01,21,17,44,982.96
2010,01,21,17,45,982.62
2010,01,21,17,47,982.96
2010,01,21,17,48,982.62
2010,01,21,17,50,982.62
2010,01,21,17,52,982.62
2010,01,21,17,53,982.96
2010,01,21,17,54,982.96
2010,01,21,17,55,982.62
2010,01,21,17,56,982.96
2010,01,21,17,58,982.96
2010,01,21,17,59,982.96
2010,01,21,18,00,982.96
2010,01,21,18,01,982.96
2010,01,21,18,02,982.96
2010,01,21,18,03,982.96
2010,01,21,18,05,982.96
2010,01,21,18,06,982.96
2010,01,21,18,07,982.96
2010,01,21,18,08,982.96
2010,01,21,18,10,982.96
2010,01,21,18,11,982.96
2010,01,21,18,12,982.96
2010,01,21,18,13,982.96
2010,01,21,18,14,982.96
2010,01,21,18,16,982.96
2010,01,21,18,17,982.96
2010,01,21,18,18,982.96
2010,01,21,18,20,982.96
2010,01,21,18,22,983.29
2010,01,21,18,23,982.96
2010,01,21,18,24,982.96
2010,01,21,18,25,983.29
2010,01,21,18,26,982.96
2010,01,21,18,28,982.96
2010,01,21,18,30,982.96
2010,01,21,18,31,982.96
2010,01,21,18,32,982.96
2010,01,21,18,34,982.96
2010,01,21,18,35,982.96
2010,01,21,18,36,982.96
2010,01,21,18,37,982.96
2010,01,21,18,38,982.96
2010,01,21,18,40,982.96
2010,01,21,18,41,982.96
2010,01,21,18,42,982.96
2010,01,21,18,43,982.96
2010,01,21,18,44,982.96
2010,01,21,18,46,982.96
2010,01,21,18,47,982.96
2010,01,21,18,48,982.96
2010,01,21,18,50,982.96
2010,01,21,18,52,982.96
2010,01,21,18,53,982.96
2010,01,21,18,54,982.96
2010,01,21,18,55,982.96
2010,01,21,18,57,983.29
2010,01,21,18,58,983.29
2010,01,21,19,00,983.29
2010,01,21,19,02,983.29
2010,01,21,19,03,983.29
2010,01,21,19,04,983.29
2010,01,21,19,05,983.29
2010,01,21,19,07,983.29
2010,01,21,19,08,983.29
2010,01,21,19,09,983.29
2010,01,21,19,12,983.29
2010,01,21,19,13,983.29
2010,01,21,19,14,983.29
2010,01,21,19,15,983.29
2010,01,21,19,16,983.29
2010,01,21,19,17,983.29
2010,01,21,19,19,983.29
2010,01,21,19,20,983.29
2010,01,21,19,21,983.29
2010,01,21,19,22,983.29
2010,01,21,19,23,983.29
2010,01,21,19,25,983.29
2010,01,21,19,26,983.29
2010,01,21,19,27,983.29
2010,01,21,19,28,983.29
2010,01,21,19,29,983.63
2010,01,21,19,32,983.63
2010,01,21,19,33,983.29
2010,01,21,19,34,983.29
2010,01,21,19,35,983.29
2010,01,21,19,36,983.29
2010,01,21,19,38,983.29
2010,01,21,19,39,983.29
2010,01,21,19,40,983.29
2010,01,21,19,41,983.29
2010,01,21,19,42,983.29
2010,01,21,19,44,983.29
2010,01,21,19,45,983.29
2010,01,21,19,46,983.29
2010,01,21,19,47,983.29
2010,01,21,19,48,983.29
2010,01,21,19,50,983.29
2010,01,21,19,51,983.29
2010,01,21,19,52,983.29
2010,01,21,19,53,983.29
2010,01,21,19,54,983.29
2010,01,21,19,56,983.29
2010,01,21,19,57,983.29
2010,01,21,19,58,983.29
2010,01,21,19,59,983.29
2010,01,21,20,02,983.29
2010,01,21,20,03,983.29
2010,01,21,20,04,983.29
2010,01,21,20,05,983.29
2010,01,21,20,07,983.29
2010,01,21,20,08,983.29
2010,01,21,20,10,983.29
2010,01,21,20,11,983.29
2010,01,21,20,13,983.29
2010,01,21,20,14,983.29
2010,01,21,20,15,983.29
2010,01,21,20,16,983.29
2010,01,21,20,17,983.29
2010,01,21,20,19,983.29
2010,01,21,20,20,983.29
2010,01,21,20,21,983.63
2010,01,21,20,22,983.63
2010,01,21,20,24,983.29
2010,01,21,20,25,983.29
2010,01,21,20,26,983.63
2010,01,21,20,27,983.63
2010,01,21,20,28,983.63
2010,01,21,20,30,983.63
2010,01,21,20,33,983.63
2010,01,21,20,34,983.63
2010,01,21,20,35,983.63
2010,01,21,20,36,983.63
2010,01,21,20,38,983.63
2010,01,21,20,40,983.63
2010,01,21,20,41,983.63
2010,01,21,20,42,983.63
2010,01,21,20,44,983.63
2010,01,21,20,45,983.63
2010,01,21,20,46,983.63
2010,01,21,20,47,983.63
2010,01,21,20,49,983.63
2010,01,21,20,50,983.63
2010,01,21,20,51,983.63
2010,01,21,20,52,983.63
2010,01,21,20,53,983.63
2010,01,21,20,55,983.63
2010,01,21,20,56,983.63
2010,01,21,20,57,983.63
2010,01,21,20,58,983.63
2010,01,21,21,00,983.63
2010,01,21,21,02,983.63
2010,01,21,21,03,983.63
2010,01,21,21,04,983.63
2010,01,21,21,06,983.63
2010,01,21,21,07,983.63
2010,01,21,21,08,983.63
2010,01,21,21,10,983.63
2010,01,21,21,12,983.97
2010,01,21,21,13,983.97
2010,01,21,21,14,983.97
2010,01,21,21,15,983.97
2010,01,21,21,17,983.97
2010,01,21,21,18,983.97
2010,01,21,21,20,983.97
2010,01,21,21,21,983.97
2010,01,21,21,23,983.97
2010,01,21,21,24,983.97
2010,01,21,21,25,983.97
2010,01,21,21,26,983.97
2010,01,21,21,28,983.97
2010,01,21,21,29,983.97
2010,01,21,21,30,983.97
2010,01,21,21,32,983.97
2010,01,21,21,33,983.97
2010,01,21,21,34,983.97
2010,01,21,21,36,983.97
2010,01,21,21,37,984.31
2010,01,21,21,38,983.97
2010,01,21,21,39,983.97
2010,01,21,21,41,983.97
2010,01,21,21,42,983.97
2010,01,21,21,43,983.97